Weather History for Atuona, French Polynesia

Change the Weather History Date:

Wednesday, February 13, 2013

  Actual Average Record
Temperature  
Mean Temperature 83 °F -  
Max Temperature 93 °F 88 °F - ()
Min Temperature 73 °F 74 °F - ()
Cooling Degree Days 18    
Growing Degree Days 33 (Base 50)    
Moisture  
Dew Point 71 °F    
Average Humidity 64    
Maximum Humidity 82    
Minimum Humidity 44    
Precipitation  
Precipitation 0.00 in 0.17 in - ()
Sea Level Pressure  
Sea Level Pressure 29.88 in    
Wind  
Wind Speed 2 mph ()    
Max Wind Speed 8 mph    
Max Gust Speed -    
T = Trace of Precipitation, MM = Missing Value Source: Averaged Metar Reports

Daily Weather History Graph

Daily Weather History Graph

Search for Another Location

Airport:

Trip Planner

Search our weather history database for the weather conditions in past years. The results will help you decide how hot, cold, wet, or windy it might be!

Date:

Astronomy

Feb. 13, 2013 Rise Set
Actual Time 5:47 AM MART 6:12 PM MART
Civil Twilight 5:25 AM MART 6:34 PM MART
Nautical Twilight 5:00 AM MART 6:59 PM MART
Astronomical Twilight 4:35 AM MART 7:25 PM MART
Moon 8:42 AM MART (2/13) 8:53 PM MART (2/13)
Length of Visible Light 13h 08m
Length of Day
12h 25m
Waxing Crescent, 15% of the Moon is Illuminated
Feb 13
Waxing Crescent
Feb 17
First Quarter
Feb 25
Full
Mar 4
Last Quarter
Mar 11
New

Hourly Weather History & Observations

Time (MART) Temp. Dew Point Humidity Pressure Visibility Wind Dir Wind Speed Gust Speed Precip Events Conditions
12:30 AM 74 °F 68 °F 76% 29.94 in - Calm Calm - -  
1:30 AM 74 °F 69 °F 78% 29.91 in - Calm Calm - -  
2:30 AM 74 °F 68 °F 77% 29.90 in - NNE 2.3 mph - -  
4:30 AM 74 °F 68 °F 77% 29.91 in - Calm Calm - -  
5:30 AM 73 °F 69 °F 82% 29.91 in 25 mi Calm Calm - -   Scattered Clouds
6:30 AM 77 °F 71 °F 76% 29.92 in 25 mi NE 2.3 mph - -  
7:30 AM 82 °F 71 °F 62% 29.93 in 25 mi ENE 3.5 mph - -   Scattered Clouds
8:30 AM 86 °F 70 °F 51% 29.94 in 25 mi ESE 3.5 mph - -   Scattered Clouds
9:30 AM 90 °F 73 °F 48% 29.93 in 25 mi ESE 5.8 mph - -   Scattered Clouds
10:30 AM 91 °F 73 °F 47% 29.91 in 25 mi ESE 4.6 mph - -   Scattered Clouds
11:30 AM 93 °F 74 °F 44% 29.89 in 25 mi ESE 5.8 mph - -   Scattered Clouds
1:30 PM 90 °F 73 °F 49% 29.84 in 25 mi SE 4.6 mph - -   Scattered Clouds
2:30 PM 91 °F 73 °F 46% 29.83 in 25 mi ESE 8.1 mph - -   Scattered Clouds
3:30 PM 90 °F 71 °F 44% 29.81 in 25 mi ESE 6.9 mph - -   Scattered Clouds
4:30 PM 86 °F 72 °F 55% 29.80 in 25 mi SE 4.6 mph - -   Scattered Clouds
5:30 PM 83 °F 72 °F 63% 29.82 in - East 4.6 mph - -  
6:30 PM 81 °F 71 °F 65% 29.83 in - Calm Calm - -  
7:30 PM 79 °F 72 °F 74% 29.85 in - North 3.5 mph - -  
8:30 PM 78 °F 72 °F 77% 29.87 in - NNW 2.3 mph - -  
9:30 PM 78 °F 72 °F 77% 29.88 in - NNE 2.3 mph - -  
10:30 PM 78 °F 72 °F 75% 29.88 in - North 3.5 mph - -  
11:30 PM 78 °F 72 °F 75% 29.88 in - NE 1.2 mph - -